Date String (YYYY-MM-DD hh:mm:ss) UTC,Instrument flags,absolute air pressure of the measurement (hPa),sample flow rate (lpm),inlet stack bypass flow (lpm),air temperature of the measurement (°C),ambient temperature measured by the external sensor (°C),aerosol sample conditioner tube jacket temperature (°C),OPC LED temperature (°C),internal box temperature (°C),relative humidity of the measurement (%),span deviation,mass concentration of particles derived from Lorenz-Mie calculation of OPC scattering (μg/m³),mass concentration of particles derived from Lorenz-Mie calculation of OPC scattering (μg/m³),mass concentration of particles derived from Lorenz-Mie calculation of OPC scattering (μg/m³)
DateTimeUTC,F1_M11,P_M11,Q1_M11,Q2_M11,T1_M11,T2_M11,T3_M11,T4_M11,T5_M11,U1_M11,ZSPAN_M11,X2_M11,X0_M11,X1_M11
2024-03-13 06:00:00,SystemResetWarning,0822.7,5.00,000.00,022.7,021.9,000.0,031.3,024.5,20.8,0000.0,0003.75,0009.21,0002.44
2024-03-13 06:01:00,SystemResetWarning,0822.7,5.00,000.00,022.7,021.9,000.0,031.3,024.5,20.8,0000.0,0003.73,0009.55,0002.47
2024-03-13 06:02:00,SystemResetWarning,0822.6,5.00,000.00,022.7,021.9,000.0,031.3,024.5,20.9,0000.0,0003.71,0009.70,0002.49
2024-03-13 06:03:00,SystemResetWarning,0822.7,5.00,000.00,022.7,021.8,000.0,031.3,024.5,20.9,0000.0,0003.72,0010.38,0002.51
2024-03-13 06:04:00,SystemResetWarning,0822.6,5.00,000.00,022.7,021.8,000.0,031.3,024.5,21.0,0000.0,0003.74,0010.68,0002.54
2024-03-13 06:05:00,SystemResetWarning,0822.7,5.00,000.00,022.7,021.8,000.0,031.3,024.5,21.1,0000.0,0003.75,0010.75,0002.55
2024-03-13 06:06:00,SystemResetWarning,0822.9,4.99,000.00,022.6,021.8,000.0,031.2,024.5,21.2,0000.0,0003.80,0010.88,0002.59
2024-03-13 06:07:00,SystemResetWarning,0822.7,5.00,000.00,022.6,021.8,000.0,031.2,024.5,21.1,0000.0,0003.86,0011.05,0002.62
2024-03-13 06:08:00,SystemResetWarning,0822.8,4.99,000.00,022.6,021.8,000.0,031.2,024.4,21.1,0000.0,0003.88,0011.02,0002.65
2024-03-13 06:09:00,SystemResetWarning,0822.9,5.00,000.00,022.6,021.8,000.0,031.2,024.4,20.9,0000.0,0003.85,0010.84,0002.67
2024-03-13 06:10:00,SystemResetWarning,0822.8,5.01,000.00,022.6,021.7,000.0,031.2,024.4,21.0,0000.0,0003.83,0010.67,0002.71
2024-03-13 06:11:00,SystemResetWarning,0822.6,5.00,000.00,022.6,021.6,000.0,031.2,024.4,21.2,0000.0,0003.88,0010.37,0002.74
2024-03-13 06:12:00,SystemResetWarning,0822.8,5.01,000.00,022.6,021.6,000.0,031.2,024.4,21.3,0000.0,0003.94,0009.94,0002.77
2024-03-13 06:13:00,SystemResetWarning,0822.6,5.00,000.00,022.6,021.6,000.0,031.2,024.4,21.3,0000.0,0003.95,0009.46,0002.82
2024-03-13 06:14:00,SystemResetWarning,0822.7,4.99,000.00,022.6,021.6,000.0,031.2,024.4,21.4,0000.0,0004.01,0008.91,0002.88
2024-03-13 06:15:00,SystemResetWarning,0823.0,4.99,000.00,022.5,021.6,000.0,031.2,024.3,21.6,0000.0,0004.03,0008.58,0002.90
2024-03-13 06:16:00,SystemResetWarning,0823.1,5.00,000.00,022.5,021.6,000.0,031.2,024.3,21.8,0000.0,0004.05,0008.46,0002.92
2024-03-13 06:17:00,SystemResetWarning,0822.9,4.99,000.00,022.5,021.6,000.0,031.2,024.3,21.9,0000.0,0004.08,0008.78,0002.93
2024-03-13 06:18:00,SystemResetWarning,0823.0,4.99,000.00,022.5,021.6,000.0,031.1,024.3,21.8,0000.0,0004.07,0008.80,0002.93
2024-03-13 06:19:00,SystemResetWarning,0823.0,5.00,000.00,022.5,021.6,000.0,031.1,024.3,21.7,0000.0,0004.08,0008.89,0002.93
2024-03-13 06:20:00,SystemResetWarning,0822.8,5.01,000.00,022.5,021.6,000.0,031.1,024.3,21.7,0000.0,0004.14,0009.33,0002.94
2024-03-13 06:21:00,SystemResetWarning,0822.8,5.01,000.00,022.5,021.6,000.0,031.1,024.3,21.8,0000.0,0004.17,0009.42,0002.93
2024-03-13 06:22:00,SystemResetWarning,0822.9,5.00,000.00,022.4,021.5,000.0,031.1,024.3,21.9,0000.0,0004.16,0009.34,0002.92
2024-03-13 06:23:00,SystemResetWarning,0823.0,5.00,000.00,022.4,021.5,000.0,031.1,024.3,21.9,0000.0,0004.09,0009.21,0002.91
2024-03-13 06:24:00,SystemResetWarning,0823.0,5.00,000.00,022.4,021.5,000.0,031.1,024.2,22.0,0000.0,0004.09,0009.30,0002.89
2024-03-13 06:25:00,SystemResetWarning,0823.0,4.99,000.00,022.4,021.5,000.0,031.1,024.2,21.9,0000.0,0004.06,0009.18,0002.87
2024-03-13 06:26:00,SystemResetWarning,0822.8,5.00,000.00,022.4,021.5,000.0,031.0,024.2,21.9,0000.0,0004.06,0009.18,0002.83
2024-03-13 06:27:00,SystemResetWarning,0822.9,5.01,000.00,022.4,021.5,000.0,031.0,024.2,21.8,0000.0,0003.99,0008.94,0002.82
2024-03-13 06:28:00,SystemResetWarning,0822.9,5.00,000.00,022.4,021.5,000.0,031.0,024.2,21.8,0000.0,0003.96,0008.77,0002.80
2024-03-13 06:29:00,SystemResetWarning,0822.6,5.01,000.00,022.4,021.5,000.0,031.0,024.2,21.9,0000.0,0003.93,0008.86,0002.78
2024-03-13 06:30:00,SystemResetWarning,0822.4,5.00,000.00,022.4,021.5,000.0,031.0,024.2,22.0,0000.0,0003.92,0008.86,0002.79
2024-03-13 06:31:00,SystemResetWarning,0822.5,5.00,000.00,022.4,021.5,000.0,031.0,024.2,22.0,0000.0,0003.90,0008.49,0002.80
2024-03-13 06:32:00,SystemResetWarning,0822.4,4.99,000.00,022.3,021.5,000.0,031.0,024.2,22.1,0000.0,0003.93,0008.50,0002.81
2024-03-13 06:33:00,SystemResetWarning,0822.6,4.99,000.00,022.3,021.5,000.0,031.0,024.2,22.2,0000.0,0003.91,0008.54,0002.80
2024-03-13 06:34:00,SystemResetWarning,0822.5,5.00,000.00,022.3,021.5,000.0,031.0,024.2,22.2,0000.0,0003.94,0008.55,0002.81
2024-03-13 06:35:00,SystemResetWarning,0822.6,5.01,000.00,022.3,021.5,000.0,031.0,024.2,22.3,0000.0,0003.94,0008.44,0002.81
2024-03-13 06:36:00,SystemResetWarning,0822.5,5.01,000.00,022.3,021.5,000.0,031.0,024.2,22.3,0000.0,0003.97,0008.47,0002.82
2024-03-13 06:37:00,SystemResetWarning,0822.4,4.99,000.00,022.3,021.5,000.0,031.0,024.2,22.2,0000.0,0003.96,0008.84,0002.85
2024-03-13 06:38:00,SystemResetWarning,0822.5,4.99,000.00,022.3,021.4,000.0,030.9,024.1,22.1,0000.0,0004.02,0009.01,0002.86
2024-03-13 06:39:00,SystemResetWarning,0822.4,5.00,000.00,022.3,021.4,000.0,030.9,024.1,21.7,0000.0,0004.06,0008.98,0002.86
2024-03-13 06:40:00,SystemResetWarning,0822.4,5.00,000.00,022.3,021.4,000.0,030.9,024.1,22.0,0000.0,0004.08,0008.72,0002.86
2024-03-13 06:41:00,SystemResetWarning,0822.4,5.00,000.00,022.3,021.4,000.0,030.9,024.1,22.3,0000.0,0004.08,0008.94,0002.84
2024-03-13 06:42:00,SystemResetWarning,0822.4,5.01,000.00,022.3,021.4,000.0,030.9,024.1,22.4,0000.0,0004.03,0008.96,0002.81
2024-03-13 06:43:00,SystemResetWarning,0822.4,5.01,000.00,022.3,021.4,000.0,030.9,024.1,22.4,0000.0,0004.01,0008.92,0002.79
2024-03-13 06:44:00,SystemResetWarning,0822.4,5.00,000.00,022.2,021.4,000.0,030.9,024.1,22.0,0000.0,0004.04,0008.96,0002.79
2024-03-13 06:45:00,SystemResetWarning,0822.4,4.99,000.00,022.2,021.4,000.0,030.9,024.1,22.3,0000.0,0004.00,0008.93,0002.78
2024-03-13 06:46:00,SystemResetWarning,0822.4,4.99,000.00,022.2,021.4,000.0,030.9,024.1,22.4,0000.0,0004.01,0009.19,0002.76
2024-03-13 06:47:00,SystemResetWarning,0822.4,5.00,000.00,022.2,021.4,000.0,030.9,024.1,22.3,0000.0,0003.96,0009.09,0002.74
2024-03-13 06:48:00,SystemResetWarning,0822.4,5.00,000.00,022.2,021.4,000.0,030.9,024.1,22.3,0000.0,0003.92,0008.64,0002.71
2024-03-13 06:49:00,SystemResetWarning,0822.4,5.00,000.00,022.2,021.4,000.0,030.9,024.1,22.3,0000.0,0003.87,0008.70,0002.66
2024-03-13 06:50:00,SystemResetWarning,0822.4,5.01,000.00,022.2,021.4,000.0,030.8,024.1,22.3,0000.0,0003.83,0008.67,0002.62
2024-03-13 06:51:00,SystemResetWarning,0822.4,5.00,000.00,022.2,021.4,000.0,030.8,024.1,22.3,0000.0,0003.82,0008.79,0002.61
2024-03-13 06:52:00,SystemResetWarning,0822.3,5.00,000.00,022.2,021.4,000.0,030.8,024.1,22.3,0000.0,0003.80,0008.69,0002.60
2024-03-13 06:53:00,SystemResetWarning,0822.3,5.00,000.00,022.2,021.4,000.0,030.8,024.0,22.3,0000.0,0003.79,0008.55,0002.56
2024-03-13 06:54:00,SystemResetWarning,0822.2,5.00,000.00,022.2,021.4,000.0,030.8,024.0,22.0,0000.0,0003.79,0008.59,0002.52
2024-03-13 06:55:00,SystemResetWarning,0822.2,5.00,000.00,022.2,021.4,000.0,030.8,024.0,22.0,0000.0,0003.72,0008.64,0002.50
2024-03-13 06:56:00,SystemResetWarning,0822.2,5.00,000.00,022.2,021.4,000.0,030.8,024.0,22.0,0000.0,0003.69,0008.79,0002.48
2024-03-13 06:57:00,SystemResetWarning,0822.2,5.01,000.00,022.2,021.4,000.0,030.8,024.0,22.1,0000.0,0003.65,0008.55,0002.46
2024-03-13 06:58:00,SystemResetWarning,0822.2,5.01,000.00,022.2,021.4,000.0,030.8,024.0,22.0,0000.0,0003.64,0008.55,0002.45
2024-03-13 06:59:00,SystemResetWarning,0822.2,4.98,000.00,022.2,021.4,000.0,030.8,024.0,22.0,0000.0,0003.67,0008.59,0002.42
